| time (UTC) | temp C | wind direction | speed KPH | gust KPH | rain 1hr cm | rain 24hr cm | rain mn cm | humidity % | barometer mb |
| 20260906023521 | 11 | 189 | 4.8 | 12.9 | 0.00 | 0.00 | 0.00 | 87 | 1025.0 |
| 20260906023025 | 11 | 185 | 4.8 | 14.5 | 0.00 | 0.00 | 0.00 | 87 | 1025.1 |
| 20260906022520 | 11 | 224 | 6.4 | 16.1 | 0.00 | 0.00 | 0.00 | 87 | 1025.1 |
| 20260906022020 | 11 | 231 | 3.2 | 16.1 | 0.00 | 0.00 | 0.00 | 87 | 1024.9 |
| 20260906021519 | 11 | 245 | 4.8 | 14.5 | 0.00 | 0.00 | 0.00 | 87 | 1024.8 |
| 20260906021018 | 11 | 209 | 1.6 | 14.5 | 0.00 | 0.00 | 0.00 | 87 | 1024.9 |
| 20260906020521 | 11 | 263 | 3.2 | 16.1 | 0.00 | 0.00 | 0.00 | 87 | 1024.9 |
| 20260906020018 | 11 | 190 | 1.6 | 6.4 | 0.00 | 0.00 | 0.00 | 87 | 1024.9 |
| 20260906015517 | 11 | 187 | 1.6 | 11.3 | 0.00 | 0.00 | 0.00 | 87 | 1024.7 |
| 20260906015018 | 11 | 199 | 1.6 | 11.3 | 0.00 | 0.00 | 0.00 | 87 | 1024.8 |
| 20260906014517 | 11 | 248 | 3.2 | 11.3 | 0.00 | 0.00 | 0.00 | 87 | 1024.8 |
| 20260906014015 | 11 | 231 | 3.2 | 16.1 | 0.00 | 0.00 | 0.00 | 86 | 1024.7 |
| 20260906013515 | 11 | 214 | 1.6 | 12.9 | 0.00 | 0.00 | 0.00 | 86 | 1024.6 |
| 20260906013015 | 11 | 200 | 1.6 | 12.9 | 0.00 | 0.00 | 0.00 | 86 | 1024.7 |
| 20260906012514 | 11 | 157 | 1.6 | 9.7 | 0.00 | 0.00 | 0.00 | 86 | 1024.6 |
| 20260906012014 | 11 | 236 | 3.2 | 11.3 | 0.00 | 0.00 | 0.00 | 87 | 1024.6 |
| 20260906011513 | 11 | 224 | 3.2 | 12.9 | 0.00 | 0.00 | 0.00 | 86 | 1024.6 |
| 20260906011012 | 11 | 238 | 3.2 | 9.7 | 0.00 | 0.00 | 0.00 | 86 | 1024.6 |
| 20260906010516 | 11 | 196 | 1.6 | 8.0 | 0.00 | 0.00 | 0.00 | 87 | 1024.6 |
| 20260906010014 | 11 | 209 | 1.6 | 8.0 | 0.00 | 0.00 | 0.00 | 86 | 1024.5 |
| 20260906005515 | 12 | 172 | 1.6 | 9.7 | 0.00 | 0.03 | 0.00 | 86 | 1024.5 |
| 20260906005011 | 12 | 191 | 0.0 | 12.9 | 0.00 | 0.03 | 0.00 | 87 | 1024.6 |
| 20260906004512 | 12 | 231 | 1.6 | 14.5 | 0.00 | 0.03 | 0.00 | 86 | 1024.6 |
| 20260906004010 | 12 | 181 | 6.4 | 16.1 | 0.00 | 0.03 | 0.00 | 86 | 1024.6 |
| 20260906003511 | 12 | 224 | 1.6 | 16.1 | 0.00 | 0.03 | 0.00 | 87 | 1024.6 |
| 20260906003009 | 12 | 246 | 4.8 | 16.1 | 0.00 | 0.03 | 0.00 | 87 | 1024.5 |
| 20260906002508 | 12 | 262 | 4.8 | 12.9 | 0.00 | 0.03 | 0.00 | 87 | 1024.4 |
| 20260906002008 | 12 | 242 | 4.8 | 14.5 | 0.00 | 0.03 | 0.00 | 87 | 1024.5 |
| 20260906001508 | 12 | 171 | 1.6 | 14.5 | 0.00 | 0.03 | 0.00 | 87 | 1024.3 |
| 20260906001007 | 12 | 303 | 4.8 | 11.3 | 0.00 | 0.03 | 0.00 | 87 | 1024.5 |
| 20260906000507 | 12 | 217 | 1.6 | 9.7 | 0.00 | 0.03 | 0.00 | 87 | 1024.5 |
| 20260906000007 | 12 | 191 | 3.2 | 9.7 | 0.00 | 0.03 | 0.00 | 87 | 1024.5 |
| 20260905235506 | 12 | 227 | 3.2 | 11.3 | 0.00 | 0.03 | 0.00 | 87 | 1024.5 |
| 20260905235006 | 12 | 256 | 3.2 | 12.9 | 0.00 | 0.03 | 0.00 | 87 | 1024.3 |
| 20260905234506 | 12 | 189 | 3.2 | 11.3 | 0.00 | 0.03 | 0.00 | 87 | 1024.3 |
| 20260905234007 | 12 | 175 | 0.0 | 11.3 | 0.00 | 0.03 | 0.00 | 87 | 1024.3 |
| 20260905233508 | 12 | 277 | 3.2 | 11.3 | 0.00 | 0.03 | 0.00 | 87 | 1024.3 |
| 20260905233003 | 12 | 216 | 3.2 | 11.3 | 0.00 | 0.03 | 0.00 | 88 | 1024.1 |
| 20260905232505 | 12 | 183 | 1.6 | 11.3 | 0.00 | 0.03 | 0.00 | 88 | 1024.3 |
| 20260905232003 | 12 | 202 | 1.6 | 6.4 | 0.00 | 0.03 | 0.00 | 88 | 1024.0 |
| 20260905231502 | 12 | 216 | 3.2 | 8.0 | 0.00 | 0.03 | 0.00 | 88 | 1024.1 |
| 20260905231004 | 12 | 178 | 1.6 | 8.0 | 0.00 | 0.03 | 0.00 | 88 | 1024.1 |
| 20260905230501 | 12 | 184 | 1.6 | 4.8 | 0.00 | 0.03 | 0.00 | 88 | 1023.9 |
| 20260905230100 | 12 | 206 | 0.0 | 6.4 | 0.00 | 0.03 | 0.00 | 88 | 1023.9 |
| 20260905225604 | 12 | 178 | 3.2 | 11.3 | 0.00 | 0.08 | 0.00 | 88 | 1024.0 |
| 20260905225102 | 12 | 215 | 1.6 | 11.3 | 0.00 | 0.08 | 0.00 | 88 | 1023.9 |
| 20260905224602 | 12 | 211 | 0.0 | 9.7 | 0.00 | 0.08 | 0.00 | 88 | 1023.8 |
| 20260905224056 | 12 | 224 | 1.6 | 9.7 | 0.00 | 0.08 | 0.00 | 88 | 1023.8 |
| 20260905223557 | 12 | 238 | 0.0 | 4.8 | 0.00 | 0.08 | 0.00 | 88 | 1023.7 |
| 20260905223056 | 12 | 183 | 0.0 | 14.5 | 0.00 | 0.08 | 0.00 | 88 | 1023.7 |
| 20260905222555 | 12 | 227 | 3.2 | 14.5 | 0.00 | 0.08 | 0.00 | 87 | 1023.6 |
| 20260905222055 | 12 | 254 | 1.6 | 6.4 | 0.00 | 0.08 | 0.00 | 87 | 1023.5 |
| 20260905221555 | 12 | 244 | 0.0 | 8.0 | 0.00 | 0.08 | 0.00 | 87 | 1023.6 |
| 20260905221055 | 12 | 248 | 1.6 | 8.0 | 0.00 | 0.08 | 0.00 | 86 | 1023.7 |
| 20260905220554 | 12 | 253 | 1.6 | 6.4 | 0.00 | 0.08 | 0.00 | 86 | 1023.5 |
| 20260905220053 | 12 | 210 | 0.0 | 6.4 | 0.00 | 0.08 | 0.00 | 86 | 1023.7 |
| 20260905215553 | 12 | 215 | 0.0 | 6.4 | 0.00 | 0.43 | 0.08 | 86 | 1023.6 |
| 20260905215052 | 12 | 227 | 0.0 | 11.3 | 0.00 | 0.43 | 0.08 | 85 | 1023.7 |
| 20260905214604 | 13 | 259 | 3.2 | 11.3 | 0.00 | 0.43 | 0.08 | 85 | 1023.6 |
| 20260905214051 | 13 | 242 | 1.6 | 11.3 | 0.00 | 0.43 | 0.08 | 85 | 1023.5 |
| 20260905213551 | 13 | 279 | 1.6 | 11.3 | 0.00 | 0.43 | 0.08 | 84 | 1023.3 |
| 20260905213050 | 13 | 201 | 1.6 | 8.0 | 0.00 | 0.43 | 0.08 | 84 | 1023.3 |
| 20260905212550 | 13 | 195 | 0.0 | 6.4 | 0.00 | 0.43 | 0.08 | 84 | 1023.3 |
| 20260905212050 | 13 | 209 | 0.0 | 6.4 | 0.00 | 0.43 | 0.08 | 85 | 1023.2 |
| 20260905211549 | 13 | 135 | 1.6 | 6.4 | 0.00 | 0.43 | 0.08 | 84 | 1023.2 |
| 20260905211049 | 13 | 224 | 3.2 | 8.0 | 0.00 | 0.43 | 0.08 | 84 | 1023.2 |
| 20260905210549 | 13 | 204 | 1.6 | 8.0 | 0.00 | 0.43 | 0.08 | 84 | 1023.3 |
| 20260905210049 | 13 | 163 | 0.0 | 8.0 | 0.00 | 0.43 | 0.08 | 83 | 1023.3 |
| 20260905205548 | 13 | 181 | 1.6 | 8.0 | 0.00 | 0.43 | 0.08 | 83 | 1023.3 |
| 20260905205051 | 13 | 244 | 3.2 | 9.7 | 0.00 | 0.43 | 0.08 | 83 | 1023.3 |
| 20260905204548 | 13 | 208 | 1.6 | 9.7 | 0.00 | 0.43 | 0.08 | 83 | 1023.1 |
| 20260905204047 | 13 | 247 | 3.2 | 11.3 | 0.00 | 0.43 | 0.08 | 83 | 1022.9 |
| 20260905203550 | 13 | 127 | 1.6 | 11.3 | 0.00 | 0.43 | 0.08 | 83 | 1023.1 |
| 20260905203047 | 13 | 304 | 4.8 | 12.9 | 0.00 | 0.43 | 0.08 | 83 | 1022.8 |
| 20260905202546 | 13 | 215 | 1.6 | 12.9 | 0.00 | 0.43 | 0.08 | 83 | 1022.9 |
| 20260905202049 | 13 | 199 | 0.0 | 14.5 | 0.00 | 0.43 | 0.08 | 83 | 1022.7 |
| 20260905201546 | 13 | 254 | 3.2 | 14.5 | 0.00 | 0.43 | 0.08 | 83 | 1022.9 |
| 20260905201046 | 13 | 223 | 0.0 | 11.3 | 0.00 | 0.43 | 0.08 | 83 | 1022.8 |
| 20260905200545 | 13 | 240 | 1.6 | 11.3 | 0.00 | 0.43 | 0.08 | 82 | 1022.6 |
| 20260905200047 | 13 | 197 | 1.6 | 6.4 | 0.00 | 0.43 | 0.08 | 82 | 1022.7 |
| 20260905195543 | 13 | 185 | 0.0 | 6.4 | 0.00 | 0.43 | 0.08 | 82 | 1022.6 |
| 20260905195043 | 13 | 229 | 1.6 | 6.4 | 0.00 | 0.43 | 0.08 | 82 | 1022.6 |
| 20260905194542 | 13 | 208 | 0.0 | 6.4 | 0.00 | 0.43 | 0.08 | 82 | 1022.4 |
| 20260905194042 | 13 | 212 | 1.6 | 8.0 | 0.00 | 0.43 | 0.08 | 82 | 1022.2 |
| 20260905193542 | 13 | 221 | 0.0 | 8.0 | 0.00 | 0.43 | 0.08 | 82 | 1022.2 |
| 20260905193042 | 13 | 227 | 1.6 | 11.3 | 0.00 | 0.43 | 0.08 | 82 | 1022.0 |
| 20260905192541 | 13 | 235 | 1.6 | 11.3 | 0.00 | 0.43 | 0.08 | 81 | 1022.1 |
| 20260905192042 | 13 | 188 | 3.2 | 8.0 | 0.00 | 0.43 | 0.08 | 81 | 1022.1 |
| 20260905191540 | 13 | 234 | 0.0 | 11.3 | 0.00 | 0.43 | 0.08 | 81 | 1022.1 |
| 20260905191041 | 13 | 213 | 1.6 | 11.3 | 0.00 | 0.43 | 0.08 | 80 | 1022.2 |
| 20260905190539 | 13 | 250 | 0.0 | 6.4 | 0.00 | 0.43 | 0.08 | 80 | 1022.2 |
| 20260905190039 | 14 | 239 | 0.0 | 12.9 | 0.00 | 0.43 | 0.08 | 80 | 1022.1 |
| 20260905185540 | 14 | 223 | 3.2 | 12.9 | 0.00 | 0.48 | 0.08 | 79 | 1022.1 |
| 20260905185038 | 14 | 258 | 1.6 | 12.9 | 0.00 | 0.48 | 0.08 | 78 | 1022.1 |
| 20260905184544 | 14 | 244 | 6.4 | 19.3 | 0.00 | 0.48 | 0.08 | 78 | 1021.9 |
| 20260905184038 | 15 | 159 | 1.6 | 9.7 | 0.00 | 0.48 | 0.08 | 76 | 1021.9 |
| 20260905183540 | 15 | 226 | 0.0 | 3.2 | 0.00 | 0.48 | 0.08 | 76 | 1021.7 |
| 20260905183038 | 15 | 227 | 0.0 | 4.8 | 0.00 | 0.48 | 0.08 | 75 | 1021.6 |
| 20260905182541 | 15 | 227 | 0.0 | 6.4 | 0.00 | 0.48 | 0.08 | 76 | 1021.5 |
| 20260905182036 | 15 | 303 | 1.6 | 6.4 | 0.00 | 0.48 | 0.08 | 75 | 1021.5 |
| 20260905181536 | 15 | 227 | 0.0 | 11.3 | 0.00 | 0.48 | 0.08 | 75 | 1021.5 |
| 20260905181035 | 15 | 229 | 3.2 | 11.3 | 0.00 | 0.48 | 0.08 | 73 | 1021.4 |
| 20260905180535 | 15 | 219 | 1.6 | 8.0 | 0.00 | 0.48 | 0.08 | 73 | 1021.1 |
| 20260905180034 | 15 | 136 | 1.6 | 9.7 | 0.00 | 0.48 | 0.08 | 70 | 1021.2 |
| 20260905175533 | 15 | 254 | 0.0 | 9.7 | 0.00 | 0.61 | 0.08 | 69 | 1021.0 |
| 20260905175033 | 15 | 252 | 3.2 | 11.3 | 0.00 | 0.61 | 0.08 | 68 | 1021.0 |
| 20260905174540 | 16 | 201 | 4.8 | 11.3 | 0.00 | 0.61 | 0.08 | 68 | 1020.9 |
| 20260905174031 | 16 | 243 | 3.2 | 9.7 | 0.00 | 0.61 | 0.08 | 68 | 1020.8 |
| 20260905173530 | 16 | 227 | 3.2 | 11.3 | 0.00 | 0.61 | 0.08 | 67 | 1020.8 |
| 20260905173030 | 16 | 254 | 3.2 | 12.9 | 0.00 | 0.61 | 0.08 | 67 | 1020.6 |
| 20260905172530 | 16 | 211 | 3.2 | 12.9 | 0.00 | 0.61 | 0.08 | 67 | 1020.6 |
| 20260905172032 | 16 | 227 | 3.2 | 17.7 | 0.00 | 0.61 | 0.08 | 67 | 1020.6 |
| 20260905171529 | 16 | 262 | 6.4 | 17.7 | 0.00 | 0.61 | 0.08 | 66 | 1020.5 |
| 20260905171028 | 16 | 192 | 3.2 | 16.1 | 0.00 | 0.61 | 0.08 | 66 | 1020.5 |
| 20260905170528 | 16 | 265 | 3.2 | 12.9 | 0.00 | 0.61 | 0.08 | 67 | 1020.5 |
| 20260905170030 | 16 | 223 | 4.8 | 22.5 | 0.00 | 0.61 | 0.08 | 66 | 1020.4 |
| 20260905165527 | 16 | 233 | 8.0 | 22.5 | 0.00 | 0.61 | 0.08 | 66 | 1020.4 |
| 20260905165028 | 16 | 180 | 4.8 | 16.1 | 0.00 | 0.61 | 0.08 | 65 | 1020.3 |
| 20260905164527 | 17 | 247 | 3.2 | 32.2 | 0.00 | 0.61 | 0.08 | 66 | 1020.4 |
| 20260905164027 | 17 | 188 | 4.8 | 32.2 | 0.00 | 0.61 | 0.08 | 64 | 1020.1 |
| 20260905163525 | 17 | 239 | 4.8 | 16.1 | 0.00 | 0.61 | 0.08 | 64 | 1020.1 |
| 20260905163025 | 17 | 206 | 6.4 | 17.7 | 0.00 | 0.61 | 0.08 | 65 | 1020.0 |
| 20260905162525 | 17 | 244 | 3.2 | 12.9 | 0.00 | 0.61 | 0.08 | 65 | 1020.1 |
| 20260905162024 | 17 | 205 | 3.2 | 19.3 | 0.00 | 0.61 | 0.08 | 65 | 1019.8 |
| 20260905161525 | 17 | 219 | 3.2 | 19.3 | 0.00 | 0.61 | 0.08 | 64 | 1019.9 |
| 20260905161024 | 17 | 217 | 4.8 | 17.7 | 0.00 | 0.61 | 0.08 | 64 | 1020.0 |
| 20260905160524 | 17 | 300 | 9.7 | 17.7 | 0.00 | 0.61 | 0.08 | 64 | 1019.7 |
| 20260905160040 | 17 | 279 | 6.4 | 22.5 | 0.00 | 0.61 | 0.08 | 66 | 1019.8 |
| 20260905155524 | 16 | 267 | 6.4 | 19.3 | 0.00 | 0.61 | 0.08 | 68 | 1019.9 |
| 20260905155023 | 16 | 271 | 4.8 | 14.5 | 0.00 | 0.61 | 0.08 | 67 | 1019.7 |
| 20260905154523 | 16 | 261 | 3.2 | 14.5 | 0.00 | 0.61 | 0.08 | 67 | 1019.7 |
| 20260905154022 | 17 | 243 | 3.2 | 19.3 | 0.00 | 0.61 | 0.08 | 66 | 1019.6 |
| 20260905153524 | 17 | 222 | 6.4 | 20.9 | 0.00 | 0.61 | 0.08 | 65 | 1019.7 |
| 20260905153024 | 17 | 288 | 9.7 | 19.3 | 0.00 | 0.61 | 0.08 | 64 | 1019.6 |
| 20260905152522 | 17 | 238 | 6.4 | 19.3 | 0.00 | 0.61 | 0.08 | 66 | 1019.6 |
| 20260905152025 | 17 | 268 | 6.4 | 24.1 | 0.00 | 0.61 | 0.08 | 66 | 1019.4 |
| 20260905151521 | 17 | 242 | 6.4 | 24.1 | 0.00 | 0.61 | 0.08 | 65 | 1019.4 |
| 20260905151024 | 17 | 178 | 4.8 | 17.7 | 0.00 | 0.61 | 0.08 | 67 | 1019.4 |
| 20260905150522 | 16 | 276 | 3.2 | 20.9 | 0.00 | 0.61 | 0.08 | 67 | 1019.5 |
| 20260905150026 | 17 | 246 | 8.0 | 20.9 | 0.00 | 0.61 | 0.08 | 64 | 1019.4 |
| 20260905145521 | 17 | 215 | 3.2 | 19.3 | 0.00 | 0.61 | 0.08 | 66 | 1019.4 |
| 20260905145021 | 16 | 257 | 6.4 | 24.1 | 0.00 | 0.61 | 0.08 | 66 | 1019.4 |
| 20260905144539 | 16 | 242 | 8.0 | 24.1 | 0.00 | 0.61 | 0.08 | 66 | 1019.3 |
| 20260905144020 | 16 | 248 | 6.4 | 17.7 | 0.00 | 0.61 | 0.08 | 67 | 1019.4 |
| 20260905143519 | 16 | 242 | 4.8 | 16.1 | 0.00 | 0.61 | 0.08 | 66 | 1019.4 |
| 20260905143023 | 17 | 234 | 3.2 | 16.1 | 0.00 | 0.61 | 0.08 | 65 | 1019.5 |
| 20260905142518 | 17 | 119 | 6.4 | 19.3 | 0.00 | 0.61 | 0.08 | 65 | 1019.4 |
| 20260905142022 | 17 | 305 | 8.0 | 22.5 | 0.00 | 0.61 | 0.08 | 64 | 1019.4 |
| 20260905141530 | 17 | 174 | 8.0 | 25.7 | 0.00 | 0.61 | 0.08 | 65 | 1019.3 |
| 20260905141018 | 17 | 271 | 8.0 | 25.7 | 0.00 | 0.61 | 0.08 | 64 | 1019.4 |
| 20260905140518 | 18 | 279 | 9.7 | 22.5 | 0.00 | 0.61 | 0.08 | 64 | 1019.4 |
| 20260905140018 | 18 | 266 | 4.8 | 22.5 | 0.00 | 0.61 | 0.08 | 65 | 1019.4 |
| 20260905135518 | 17 | 218 | 4.8 | 20.9 | 0.00 | 0.61 | 0.08 | 65 | 1019.5 |
| 20260905135017 | 17 | 197 | 4.8 | 25.7 | 0.00 | 0.61 | 0.08 | 69 | 1019.3 |
| 20260905134518 | 16 | 293 | 8.0 | 25.7 | 0.00 | 0.61 | 0.08 | 67 | 1019.3 |
| 20260905134017 | 17 | 274 | 3.2 | 19.3 | 0.00 | 0.61 | 0.08 | 66 | 1019.3 |
| 20260905133517 | 17 | 306 | 4.8 | 17.7 | 0.00 | 0.61 | 0.08 | 66 | 1019.2 |
| 20260905133019 | 17 | 260 | 6.4 | 19.3 | 0.00 | 0.61 | 0.08 | 65 | 1019.2 |
| 20260905132520 | 17 | 218 | 6.4 | 22.5 | 0.00 | 0.61 | 0.08 | 65 | 1019.2 |
| 20260905132017 | 17 | 294 | 9.7 | 22.5 | 0.00 | 0.61 | 0.08 | 64 | 1019.2 |
| 20260905131516 | 17 | 268 | 9.7 | 22.5 | 0.00 | 0.61 | 0.08 | 63 | 1019.1 |
| 20260905131016 | 18 | 179 | 6.4 | 17.7 | 0.00 | 0.61 | 0.08 | 65 | 1019.2 |
| 20260905130515 | 18 | 261 | 8.0 | 25.7 | 0.00 | 0.61 | 0.08 | 66 | 1019.1 |
| 20260905130015 | 17 | 118 | 6.4 | 25.7 | 0.00 | 0.61 | 0.08 | 69 | 1019.1 |
| 20260905125515 | 17 | 227 | 8.0 | 20.9 | 0.00 | 0.61 | 0.08 | 64 | 1019.1 |
| 20260905125015 | 18 | 335 | 8.0 | 20.9 | 0.00 | 0.61 | 0.08 | 65 | 1019.2 |
| 20260905124515 | 17 | 227 | 8.0 | 25.7 | 0.00 | 0.61 | 0.08 | 67 | 1019.1 |
| 20260905124013 | 17 | 319 | 9.7 | 25.7 | 0.00 | 0.61 | 0.08 | 66 | 1019.3 |
| 20260905123612 | 17 | 232 | 6.4 | 17.7 | 0.00 | 0.61 | 0.08 | 67 | 1019.2 |
| 20260905123012 | 17 | 313 | 8.0 | 19.3 | 0.00 | 0.61 | 0.08 | 65 | 1019.1 |
| 20260905122512 | 17 | 229 | 4.8 | 29.0 | 0.00 | 0.61 | 0.08 | 66 | 1019.1 |
| 20260905122011 | 17 | 279 | 11.3 | 25.7 | 0.00 | 0.61 | 0.08 | 67 | 1019.2 |
| 20260905121512 | 17 | 287 | 8.0 | 22.5 | 0.00 | 0.61 | 0.08 | 69 | 1019.3 |
| 20260905121012 | 17 | 323 | 9.7 | 22.5 | 0.00 | 0.61 | 0.08 | 67 | 1019.4 |
| 20260905120514 | 16 | 273 | 8.0 | 22.5 | 0.00 | 0.61 | 0.08 | 69 | 1019.3 |
| 20260905120011 | 16 | 242 | 8.0 | 20.9 | 0.00 | 0.61 | 0.08 | 67 | 1019.3 |
| 20260905115512 | 17 | 215 | 6.4 | 20.9 | 0.00 | 0.61 | 0.08 | 65 | 1019.4 |
| 20260905115014 | 17 | 315 | 11.3 | 20.9 | 0.00 | 0.61 | 0.08 | 65 | 1019.2 |
| 20260905114509 | 17 | 234 | 6.4 | 22.5 | 0.00 | 0.61 | 0.08 | 71 | 1019.2 |
| 20260905114008 | 17 | 227 | 8.0 | 22.5 | 0.00 | 0.61 | 0.08 | 68 | 1019.3 |
| 20260905113507 | 17 | 192 | 11.3 | 24.1 | 0.00 | 0.61 | 0.08 | 67 | 1019.4 |
| 20260905113008 | 17 | 215 | 8.0 | 20.9 | 0.00 | 0.61 | 0.08 | 70 | 1019.3 |
| 20260905112507 | 16 | 200 | 4.8 | 20.9 | 0.00 | 0.61 | 0.08 | 72 | 1019.4 |
| 20260905112010 | 16 | 190 | 8.0 | 16.1 | 0.00 | 0.61 | 0.08 | 69 | 1019.4 |
| 20260905111507 | 16 | 237 | 4.8 | 17.7 | 0.00 | 0.61 | 0.08 | 71 | 1019.4 |
| 20260905111007 | 16 | 248 | 4.8 | 16.1 | 0.00 | 0.61 | 0.08 | 76 | 1019.4 |
| 20260905110505 | 15 | 215 | 4.8 | 22.5 | 0.00 | 0.61 | 0.08 | 76 | 1019.4 |
| 20260905110013 | 16 | 246 | 6.4 | 24.1 | 0.00 | 0.61 | 0.08 | 72 | 1019.4 |
| 20260905105506 | 16 | 288 | 8.0 | 24.1 | 0.00 | 0.61 | 0.08 | 70 | 1019.3 |
| 20260905105008 | 17 | 300 | 4.8 | 22.5 | 0.00 | 0.61 | 0.08 | 71 | 1019.1 |
| 20260905104505 | 17 | 178 | 6.4 | 22.5 | 0.00 | 0.61 | 0.08 | 73 | 1019.1 |
| 20260905104003 | 17 | 213 | 8.0 | 19.3 | 0.00 | 0.61 | 0.08 | 72 | 1019.2 |
| 20260905103502 | 16 | 250 | 8.0 | 22.5 | 0.00 | 0.61 | 0.08 | 72 | 1019.2 |
| 20260905103101 | 16 | 260 | 8.0 | 22.5 | 0.00 | 0.61 | 0.08 | 72 | 1019.2 |
| 20260905102603 | 15 | 286 | 4.8 | 14.5 | 0.00 | 0.61 | 0.08 | 74 | 1019.1 |
| 20260905102100 | 16 | 228 | 3.2 | 17.7 | 0.00 | 0.61 | 0.08 | 72 | 1019.2 |
| 20260905101600 | 16 | 271 | 6.4 | 17.7 | 0.00 | 0.61 | 0.08 | 73 | 1019.3 |
| 20260905101058 | 16 | 216 | 3.2 | 19.3 | 0.00 | 0.61 | 0.08 | 75 | 1019.3 |
| 20260905100559 | 15 | 293 | 6.4 | 19.3 | 0.00 | 0.61 | 0.08 | 77 | 1019.4 |
| 20260905100114 | 15 | 302 | 4.8 | 11.3 | 0.00 | 0.61 | 0.08 | 75 | 1019.2 |
| 20260905095557 | 15 | 279 | 3.2 | 17.7 | 0.00 | 0.61 | 0.08 | 75 | 1019.3 |
| 20260905095059 | 15 | 261 | 4.8 | 16.1 | 0.00 | 0.61 | 0.08 | 75 | 1019.2 |
| 20260905094610 | 15 | 220 | 6.4 | 22.5 | 0.00 | 0.61 | 0.08 | 76 | 1019.0 |
| 20260905094056 | 15 | 198 | 6.4 | 22.5 | 0.00 | 0.61 | 0.08 | 77 | 1019.1 |
| 20260905093556 | 15 | 200 | 3.2 | 14.5 | 0.00 | 0.61 | 0.08 | 75 | 1019.2 |
| 20260905093058 | 15 | 232 | 4.8 | 12.9 | 0.00 | 0.61 | 0.08 | 76 | 1019.1 |
| 20260905092555 | 15 | 269 | 4.8 | 16.1 | 0.00 | 0.61 | 0.08 | 77 | 1018.8 |
| 20260905092053 | 15 | 184 | 6.4 | 20.9 | 0.00 | 0.61 | 0.08 | 77 | 1018.7 |
| 20260905091605 | 15 | 192 | 4.8 | 20.9 | 0.00 | 0.61 | 0.08 | 80 | 1018.9 |
| 20260905091052 | 15 | 184 | 6.4 | 20.9 | 0.00 | 0.61 | 0.08 | 80 | 1019.0 |
| 20260905090550 | 15 | 213 | 4.8 | 19.3 | 0.00 | 0.61 | 0.08 | 79 | 1018.8 |
| 20260905090050 | 15 | 271 | 4.8 | 19.3 | 0.00 | 0.61 | 0.08 | 80 | 1018.8 |
| 20260905085550 | 15 | 226 | 4.8 | 20.9 | 0.00 | 0.61 | 0.08 | 80 | 1018.7 |
| 20260905085049 | 15 | 173 | 6.4 | 20.9 | 0.00 | 0.61 | 0.08 | 79 | 1018.6 |
| 20260905084548 | 15 | 250 | 6.4 | 16.1 | 0.00 | 0.61 | 0.08 | 81 | 1018.6 |
| 20260905084046 | 14 | 219 | 3.2 | 22.5 | 0.00 | 0.61 | 0.08 | 84 | 1018.6 |
| 20260905083554 | 14 | 201 | 4.8 | 22.5 | 0.00 | 0.61 | 0.08 | 85 | 1018.5 |
| 20260905083045 | 14 | 295 | 3.2 | 14.5 | 0.00 | 0.61 | 0.08 | 85 | 1018.5 |
| 20260905082544 | 14 | 186 | 6.4 | 16.1 | 0.00 | 0.61 | 0.08 | 85 | 1018.6 |
| 20260905082044 | 14 | 259 | 1.6 | 16.1 | 0.00 | 0.61 | 0.08 | 86 | 1018.6 |
| 20260905081544 | 14 | 196 | 4.8 | 16.1 | 0.00 | 0.61 | 0.08 | 86 | 1018.5 |
| 20260905081043 | 14 | 302 | 6.4 | 14.5 | 0.00 | 0.61 | 0.08 | 87 | 1018.4 |
| 20260905080540 | 13 | 205 | 3.2 | 11.3 | 0.00 | 0.61 | 0.08 | 88 | 1018.6 |
| 20260905080042 | 13 | 196 | 4.8 | 17.7 | 0.00 | 0.61 | 0.08 | 86 | 1018.4 |
| 20260905075539 | 13 | 239 | 4.8 | 17.7 | 0.00 | 0.61 | 0.08 | 87 | 1018.4 |
| 20260905075038 | 13 | 190 | 4.8 | 16.1 | 0.00 | 0.61 | 0.08 | 88 | 1018.3 |
| 20260905074551 | 13 | 246 | 4.8 | 16.1 | 0.00 | 0.61 | 0.08 | 88 | 1018.3 |
| 20260905074035 | 13 | 252 | 3.2 | 11.3 | 0.00 | 0.61 | 0.08 | 89 | 1018.3 |
| 20260905073536 | 13 | 240 | 3.2 | 22.5 | 0.00 | 0.61 | 0.08 | 90 | 1018.3 |
| 20260905073055 | 13 | 191 | 3.2 | 22.5 | 0.00 | 0.61 | 0.08 | 91 | 1018.2 |
| 20260905072537 | 13 | 155 | 6.4 | 16.1 | 0.00 | 0.61 | 0.08 | 91 | 1018.3 |
| 20260905072035 | 13 | 243 | 4.8 | 11.3 | 0.00 | 0.61 | 0.08 | 92 | 1018.3 |
| 20260905071533 | 12 | 228 | 3.2 | 16.1 | 0.00 | 0.61 | 0.08 | 94 | 1018.1 |
| 20260905071034 | 12 | 257 | 4.8 | 16.1 | 0.00 | 0.61 | 0.08 | 94 | 1018.2 |
| 20260905070532 | 12 | 254 | 6.4 | 11.3 | 0.00 | 0.61 | 0.08 | 94 | 1018.1 |
| 20260905070032 | 12 | 237 | 4.8 | 11.3 | 0.00 | 0.61 | 0.08 | 95 | 1018.0 |
| 20260905065530 | 12 | 268 | 1.6 | 9.7 | 0.00 | 0.61 | 0.08 | 96 | 1018.1 |
| 20260905065034 | 12 | 258 | 1.6 | 8.0 | 0.00 | 0.61 | 0.08 | 96 | 1018.1 |
| 20260905064530 | 12 | 240 | 1.6 | 14.5 | 0.00 | 0.61 | 0.08 | 97 | 1017.9 |
| 20260905064029 | 12 | 207 | 3.2 | 14.5 | 0.00 | 0.61 | 0.08 | 96 | 1018.0 |
| 20260905063531 | 12 | 213 | 3.2 | 11.3 | 0.00 | 0.61 | 0.08 | 97 | 1018.0 |
| 20260905063028 | 12 | 251 | 0.0 | 8.0 | 0.00 | 0.61 | 0.08 | 97 | 1017.9 |
| 20260905062526 | 12 | 259 | 1.6 | 9.7 | 0.00 | 0.61 | 0.08 | 97 | 1018.0 |
| 20260905062030 | 12 | 233 | 1.6 | 9.7 | 0.00 | 0.61 | 0.08 | 97 | 1017.9 |
| 20260905061526 | 12 | 240 | 1.6 | 8.0 | 0.00 | 0.61 | 0.08 | 97 | 1017.8 |
| 20260905061026 | 12 | 245 | 1.6 | 8.0 | 0.00 | 0.61 | 0.08 | 97 | 1017.7 |
| 20260905060524 | 12 | 242 | 1.6 | 8.0 | 0.00 | 0.61 | 0.08 | 97 | 1017.6 |
| 20260905060024 | 12 | 295 | 1.6 | 9.7 | 0.00 | 0.61 | 0.08 | 97 | 1017.4 |
| 20260905055522 | 12 | 215 | 3.2 | 9.7 | 0.00 | 0.61 | 0.08 | 97 | 1017.6 |
| 20260905055022 | 12 | 235 | 4.8 | 17.7 | 0.00 | 0.61 | 0.08 | 97 | 1017.5 |
| 20260905054522 | 12 | 250 | 8.0 | 17.7 | 0.00 | 0.61 | 0.08 | 97 | 1017.5 |
| 20260905054021 | 12 | 234 | 3.2 | 12.9 | 0.00 | 0.61 | 0.08 | 97 | 1017.4 |
| 20260905053520 | 12 | 259 | 3.2 | 11.3 | 0.00 | 0.61 | 0.08 | 97 | 1017.2 |
| 20260905053020 | 12 | 301 | 1.6 | 11.3 | 0.00 | 0.61 | 0.08 | 98 | 1017.3 |
| 20260905052517 | 12 | 232 | 3.2 | 14.5 | 0.00 | 0.61 | 0.08 | 98 | 1017.1 |
| 20260905052017 | 12 | 254 | 4.8 | 12.9 | 0.00 | 0.61 | 0.08 | 98 | 1017.0 |
| 20260905051517 | 12 | 233 | 1.6 | 11.3 | 0.00 | 0.61 | 0.08 | 98 | 1016.9 |
| 20260905051015 | 12 | 232 | 1.6 | 9.7 | 0.00 | 0.61 | 0.08 | 98 | 1016.8 |
| 20260905050518 | 12 | 209 | 1.6 | 12.9 | 0.00 | 0.61 | 0.08 | 98 | 1016.8 |
| 20260905050017 | 12 | 235 | 1.6 | 12.9 | 0.00 | 0.61 | 0.08 | 98 | 1016.7 |
| 20260905045514 | 12 | 188 | 0.0 | 11.3 | 0.00 | 0.61 | 0.08 | 98 | 1016.7 |
| 20260905045013 | 12 | 169 | 3.2 | 11.3 | 0.00 | 0.61 | 0.08 | 98 | 1016.6 |
| 20260905044512 | 12 | 261 | 0.0 | 11.3 | 0.00 | 0.61 | 0.08 | 98 | 1016.5 |
| 20260905044011 | 12 | 217 | 3.2 | 8.0 | 0.00 | 0.61 | 0.08 | 98 | 1016.6 |
| 20260905043513 | 12 | 250 | 3.2 | 8.0 | 0.00 | 0.61 | 0.08 | 98 | 1016.5 |
| 20260905043014 | 12 | 219 | 0.0 | 6.4 | 0.00 | 0.61 | 0.08 | 98 | 1016.5 |
| 20260905042513 | 12 | 227 | 3.2 | 9.7 | 0.00 | 0.61 | 0.08 | 98 | 1016.3 |
| 20260905042010 | 12 | 246 | 3.2 | 9.7 | 0.00 | 0.61 | 0.08 | 98 | 1016.5 |
| 20260905041509 | 12 | 192 | 0.0 | 6.4 | 0.00 | 0.61 | 0.08 | 98 | 1016.4 |
| 20260905041008 | 12 | 211 | 1.6 | 6.4 | 0.00 | 0.61 | 0.08 | 98 | 1016.4 |
| 20260905040508 | 12 | 205 | 0.0 | 11.3 | 0.00 | 0.61 | 0.08 | 98 | 1016.4 |
| 20260905040011 | 12 | 179 | 3.2 | 12.9 | 0.00 | 0.61 | 0.08 | 98 | 1016.2 |
| 20260905035506 | 12 | 241 | 1.6 | 11.3 | 0.00 | 0.61 | 0.08 | 97 | 1016.2 |
| 20260905035006 | 12 | 207 | 3.2 | 12.9 | 0.00 | 0.61 | 0.08 | 98 | 1016.3 |
| 20260905034506 | 12 | 221 | 3.2 | 12.9 | 0.00 | 0.61 | 0.08 | 98 | 1016.1 |
| 20260905034004 | 12 | 328 | 4.8 | 11.3 | 0.00 | 0.61 | 0.08 | 98 | 1015.8 |
| 20260905033503 | 12 | 281 | 1.6 | 11.3 | 0.00 | 0.61 | 0.08 | 98 | 1015.9 |
| 20260905033010 | 12 | 206 | 4.8 | 11.3 | 0.00 | 0.61 | 0.08 | 98 | 1015.9 |
| 20260905032502 | 12 | 264 | 0.0 | 11.3 | 0.00 | 0.61 | 0.08 | 98 | 1015.9 |
| 20260905032003 | 12 | 254 | 3.2 | 9.7 | 0.00 | 0.61 | 0.08 | 98 | 1015.5 |
| 20260905031504 | 12 | 246 | 1.6 | 9.7 | 0.00 | 0.61 | 0.08 | 98 | 1015.6 |
| 20260905031001 | 12 | 243 | 1.6 | 9.7 | 0.00 | 0.61 | 0.08 | 98 | 1015.6 |
| 20260905030502 | 12 | 292 | 3.2 | 16.1 | 0.00 | 0.61 | 0.08 | 98 | 1015.5 |
| 20260905030004 | 12 | 161 | 3.2 | 16.1 | 0.00 | 0.61 | 0.08 | 98 | 1015.6 |
| 20260905025600 | 12 | 252 | 1.6 | 4.8 | 0.00 | 0.61 | 0.08 | 98 | 1015.6 |
| 20260905025100 | 12 | 223 | 0.0 | 4.8 | 0.00 | 0.61 | 0.08 | 98 | 1015.3 |
| 20260905024600 | 12 | 201 | 0.0 | 6.4 | 0.00 | 0.61 | 0.08 | 98 | 1015.4 |
| 20260905024059 | 12 | 255 | 1.6 | 14.5 | 0.00 | 0.61 | 0.08 | 98 | 1015.5 |